Wind_Gust
25 29 27 20 20 21 23 24 24 25 26 26 25 24 24 22 24 23 26 26 26 27 26 26 26 25 25 24 23 23 23 23 22 21 22 22 22 22 22 21 21 21 21 22 24 24 24 25 25 26 26 25 25 24 24 24 22 20 20 20 19 18 18 23 24 24 23 21 20 20 20 20 21 21 23 23 24 24 23 22 18 24 23 22 22
29 27 27 26 20 22 24 25 24 25 26 27 25 24 24 24 24 23 25 24 24 25 25 25 25 24 24 23 22 23 22 22 22 22 22 22 22 22 22 22 21 21 23 24 24 25 25 25 25 26 25 25 24 24 24 23 21 20 19 19 18 18 17 20 20 20 20 20 20 20 20 20 21 22 23 23 24 25 23 21 20 20 20 17 18
27 26 26 27 23 25 24 25 26 25 25 26 26 25 24 25 25 25 24 24 23 23 22 24 23 23 24 23 23 22 22 23 22 22 22 21 21 23 23 23 23 23 24 25 26 25 25 25 25 24 25 24 24 24 23 22 20 19 19 19 18 18 17 17 17 17 19 19 18 20 21 21 21 23 23 24 25 24 24 23 21 17 24 23 21
27 27 25 26 25 22 24 26 25 26 25 26 26 24 24 24 24 24 23 22 21 20 20 20 20 20 22 23 22 23 23 22 22 22 22 21 21 23 22 23 25 26 26 25 25 24 24 24 25 24 23 24 23 23 22 21 20 19 19 18 18 17 17 16 16 16 17 17 17 14 19 23 23 20 21 23 24 25 23 22 22 22 24 21 20
26 27 26 26 27 22 24 24 24 26 26 26 26 26 26 25 24 23 22 20 20 20 19 19 19 21 22 23 23 22 22 23 23 22 21 21 21 23 23 25 25 25 25 25 24 24 24 25 24 24 23 23 22 22 22 21 22 21 18 17 17 17 16 16 15 15 16 16 13 11 19 21 22 20 20 21 21 21 24 21 21 22 21 17 22
26 26 25 24 24 27 21 24 25 26 26 26 25 24 26 26 25 24 23 23 22 21 20 20 20 21 22 23 22 22 22 23 24 23 20 19 18 21 25 26 24 24 25 25 24 24 24 24 24 23 23 22 21 21 21 20 18 18 17 16 16 16 16 15 15 15 15 14 12 20 19 18 20 21 19 18 19 19 19 19 21 21 21 22 21
24 26 25 25 24 24 20 23 27 25 26 26 25 25 24 24 24 24 23 22 22 22 21 20 20 20 22 22 22 22 23 25 24 24 22 18 16 18 22 23 24 24 24 24 24 23 23 23 23 22 21 21 20 18 17 16 14 15 16 16 16 16 16 15 14 15 14 11 18 19 19 19 19 20 16 17 19 19 18 19 20 20 21 20 20
24 25 23 24 22 24 20 24 26 26 26 26 26 26 26 25 23 22 22 22 19 20 20 17 18 18 20 21 21 21 21 23 24 23 22 19 17 16 18 22 23 23 23 22 22 22 23 22 22 22 21 20 19 17 15 14 12 13 15 15 16 16 15 14 14 15 12 18 17 17 17 17 17 19 16 17 18 18 17 17 17 19 19 18 15
25 25 23 24 25 23 21 23 24 27 25 26 26 26 25 24 23 22 21 20 20 19 18 17 18 19 19 19 18 19 21 22 24 24 22 20 19 18 18 19 19 20 20 19 20 20 20 21 21 20 20 19 18 15 13 11 10 11 12 15 16 15 15 14 14 11 13 17 16 17 16 17 17 18 16 15 15 17 17 14 15 17 17 15 16
24 25 23 22 27 20 21 22 24 26 25 25 25 26 25 23 22 22 22 21 20 18 17 17 17 18 19 20 19 21 19 19 22 22 21 21 20 19 18 18 20 20 20 20 20 20 21 20 20 20 19 17 15 12 11 9 10 11 14 16 17 16 15 13 14 11 16 17 19 18 17 10 17 17 15 14 15 18 17 18 16 15 14 17 18
24 25 23 24 28 19 20 22 24 24 25 25 25 25 24 23 23 22 21 21 19 18 16 17 17 17 19 20 21 21 20 19 20 20 20 20 19 20 21 20 19 19 19 20 20 20 20 20 19 19 17 14 13 11 10 10 9 11 16 18 18 17 15 13 10 18 19 20 20 19 17 9 16 17 14 16 15 15 14 14 14 14 16 16 17
23 23 22 23 23 18 20 21 22 22 25 23 24 24 24 23 23 22 22 20 19 17 16 16 15 17 18 20 21 20 19 19 18 19 20 20 21 20 22 20 19 19 19 19 19 19 19 19 18 17 15 14 13 12 12 12 12 16 19 20 19 17 15 11 16 18 16 18 19 17 17 19 20 21 18 18 17 16 15 15 14 15 19 17 16
24 24 23 24 25 18 19 21 22 23 24 25 24 24 24 23 23 21 20 17 16 15 16 16 15 15 16 18 20 19 18 17 16 19 20 20 20 21 20 20 18 19 19 19 19 18 18 18 18 18 16 14 14 13 14 15 16 19 20 19 18 18 16 13 18 17 17 18 18 18 18 18 19 16 16 17 18 17 17 16 16 16 16 16 16
24 24 25 24 24 21 19 20 20 21 22 22 22 21 21 21 20 20 18 16 15 14 14 14 16 16 16 15 17 16 16 16 16 19 20 19 19 21 20 20 19 18 18 18 18 18 18 17 17 17 16 14 14 14 15 17 18 19 19 18 18 17 17 11 11 16 17 18 17 19 17 17 19 13 15 17 18 17 17 17 17 16 16 16 15
27 24 23 22 24 24 20 18 19 20 19 19 19 19 20 19 18 17 16 15 15 14 13 15 15 16 17 17 16 15 16 17 18 18 18 18 18 19 19 19 19 18 17 18 19 18 18 18 18 16 15 14 13 13 15 16 17 17 18 17 17 16 13 18 17 17 17 18 18 18 19 19 11 11 16 17 17 17 17 16 16 16 16 15 15
24 25 23 22 23 23 23 21 18 18 18 18 18 19 18 18 17 16 16 15 14 14 13 14 15 17 16 15 14 15 16 17 16 16 16 17 17 18 19 19 18 17 17 17 16 16 17 17 17 16 15 13 13 14 14 16 17 17 17 16 16 15 13 11 16 16 16 16 16 16 18 19 8 14 16 16 17 17 16 16 16 16 17 16 15
22 22 24 22 21 21 22 22 21 21 18 18 19 18 17 17 17 16 16 15 15 15 16 17 16 15 16 16 14 14 15 16 16 16 16 16 16 17 16 18 17 16 16 15 15 15 16 16 16 15 14 13 13 13 14 15 16 16 16 15 16 15 14 11 17 15 15 15 15 15 17 19 15 13 16 16 16 17 17 17 17 16 16 16 15
22 22 24 23 21 20 22 21 23 22 22 21 18 18 18 18 17 16 16 16 15 16 16 17 18 16 17 15 15 14 15 15 15 16 16 16 16 16 16 17 16 16 15 15 15 15 15 15 14 14 13 12 13 13 14 13 15 16 15 15 15 15 14 11 15 16 17 13 16 15 16 12 11 12 15 16 16 16 17 16 16 16 16 16 16
21 21 22 23 21 20 22 19 19 20 20 18 20 22 20 18 17 18 16 15 15 16 16 17 18 16 15 15 16 16 16 16 15 15 15 17 17 15 16 17 15 15 15 14 14 14 14 13 13 13 12 11 12 11 11 13 14 16 16 16 16 14 15 11 15 16 16 14 14 15 18 9 7 14 16 16 16 16 16 16 17 16 16 15 16
20 20 21 21 20 20 21 21 22 20 17 17 18 20 20 20 19 17 16 17 18 17 16 16 18 17 17 17 17 18 16 18 17 19 16 17 15 15 17 16 15 15 14 14 13 12 12 13 12 12 10 9 10 10 11 11 14 15 16 16 16 16 15 13 14 15 15 16 14 16 12 11 13 14 14 16 16 16 16 15 15 16 16 16 15
20 21 20 21 20 21 22 20 20 19 18 18 16 19 21 20 18 18 18 17 17 17 17 18 17 15 16 14 13 16 15 17 17 18 17 18 13 15 16 17 16 15 14 13 12 11 11 11 11 10 10 8 7 9 10 11 15 16 16 16 17 15 13 13 14 15 15 17 15 18 10 11 12 14 15 15 15 15 14 14 15 15 15 16 16
21 20 21 22 22 20 21 21 21 20 19 19 16 16 20 18 18 20 19 20 17 16 18 18 14 17 14 16 14 13 13 15 15 13 16 18 16 14 15 15 15 15 13 13 12 11 10 10 10 11 9 7 6 10 11 11 15 16 16 15 15 13 13 13 14 16 17 16 15 15 12 13 14 14 14 14 15 15 14 14 15 15 15 15 15
22 22 20 22 20 20 20 22 22 22 20 17 17 16 18 16 18 17 17 14 16 16 17 19 18 18 18 16 14 12 14 13 13 15 16 13 17 15 14 14 14 14 13 12 11 10 9 9 10 10 8 6 8 10 9 15 20 17 14 15 12 13 13 13 14 15 16 16 16 12 12 13 14 14 13 14 15 14 15 15 15 15 15 15 15
23 23 22 21 21 21 21 22 23 23 20 19 17 17 17 16 15 17 17 18 17 16 16 17 17 16 16 13 13 14 14 11 14 19 16 18 18 14 14 13 13 13 12 11 11 10 9 11 11 8 6 5 8 10 11 14 19 17 14 12 12 13 13 13 14 15 15 15 18 12 12 12 13 15 15 14 14 15 15 15 14 14 14 13 13
19 19 19 22 20 21 20 22 23 22 20 19 19 19 17 16 15 15 16 15 16 17 17 15 15 16 16 14 14 13 14 15 14 14 15 15 15 14 14 13 11 12 8 11 10 10 8 11 11 9 9 8 9 10 10 13 14 14 14 12 13 13 12 12 13 14 15 15 17 10 11 10 11 14 15 15 14 14 15 15 15 14 13 13 14
19 20 21 23 20 23 23 23 22 21 19 19 19 18 17 14 14 15 15 15 15 16 16 15 15 14 14 14 14 14 14 14 14 15 15 14 15 14 13 12 11 10 8 10 9 7 8 8 8 10 9 8 9 9 10 12 14 13 14 13 14 12 13 13 13 14 14 15 16 8 7 10 11 13 15 15 15 15 15 14 14 14 13 12 13
23 23 24 22 19 22 22 22 20 19 18 17 20 17 13 13 14 15 16 14 16 18 18 17 16 16 15 14 15 13 14 14 14 15 15 13 13 12 12 10 10 9 6 6 7 6 8 9 8 7 7 8 9 10 10 12 12 15 14 14 13 13 12 13 14 14 14 14 13 9 8 10 10 12 14 14 15 15 15 15 14 13 12 12 13
25 24 23 21 18 22 21 21 21 19 17 19 17 14 13 15 18 17 15 17 18 18 17 15 16 16 14 13 13 14 15 14 14 15 14 13 13 12 12 11 10 9 8 6 7 7 8 7 7 6 8 9 12 10 11 12 13 13 14 14 14 12 12 13 13 14 14 14 16 12 8 10 10 11 12 14 16 15 14 14 14 14 12 12 12
26 23 22 23 22 22 19 20 21 19 19 19 14 13 15 16 16 16 17 17 16 16 15 15 15 15 13 14 15 15 15 15 14 15 14 13 12 11 12 11 9 9 8 8 6 6 7 7 7 7 8 10 11 11 11 12 12 13 14 15 13 13 12 12 13 14 13 13 15 15 9 9 10 10 11 14 15 14 14 13 14 14 13 13 11
26 24 23 23 23 22 21 20 19 20 19 16 14 15 16 16 17 19 16 17 15 15 15 15 15 15 14 14 15 14 14 14 14 14 15 12 11 10 10 10 10 9 8 8 7 6 7 7 7 8 10 10 11 11 10 12 13 12 12 14 13 12 12 12 13 13 13 12 13 16 9 9 11 10 8 10 13 14 14 13 13 13 14 13 12
22 25 24 24 21 22 21 18 18 16 16 16 16 16 16 19 19 17 17 16 15 14 14 15 15 14 13 15 15 14 14 13 14 14 13 13 11 11 10 9 10 10 8 8 8 6 7 8 8 8 9 10 11 11 10 11 12 13 11 13 13 12 13 11 11 12 13 13 12 12 16 11 12 11 8 8 10 12 13 13 13 13 13 13 13
24 23 21 18 17 19 21 17 17 17 16 17 15 15 18 19 17 16 15 15 14 14 14 14 14 14 14 15 14 14 14 13 13 13 13 12 11 11 8 7 10 9 9 9 9 7 7 10 9 10 10 10 11 11 10 10 11 13 13 13 14 13 13 12 12 11 11 12 12 12 12 15 12 11 8 3 9 9 11 12 12 12 12 12 12
12 14 16 15 17 18 20 17 17 16 18 16 14 13 16 17 17 15 15 16 15 15 15 14 14 13 13 13 13 15 14 15 13 12 12 12 11 10 7 7 9 9 8 9 10 9 8 9 11 11 11 12 12 12 12 12 12 12 12 13 13 14 13 14 13 13 12 12 11 12 12 13 15 9 6 6 7 8 10 9 10 11 11 11 12
13 9 13 16 14 11 16 15 16 14 18 15 14 14 16 15 14 14 15 15 14 15 14 14 13 13 12 12 12 12 12 12 12 11 11 11 10 9 8 8 9 9 9 9 10 8 8 9 10 11 11 12 13 12 12 13 12 12 13 13 13 14 14 15 14 12 11 10 10 10 12 12 12 13 15 8 7 10 9 7 10 10 9 9 9
16 14 19 18 16 10 13 12 16 15 18 18 13 13 14 15 16 14 14 14 14 15 14 14 14 13 13 12 12 11 11 12 11 12 11 10 10 9 9 9 10 9 9 9 9 9 8 9 9 12 12 14 13 12 13 13 13 13 12 13 14 13 14 15 13 12 13 11 9 10 9 10 10 11 12 13 9 9 8 8 8 7 6 6 5
14 17 16 15 18 16 16 13 15 17 18 17 13 13 14 14 14 12 14 14 15 15 15 14 15 14 13 12 12 14 14 13 13 14 12 10 10 9 10 11 11 10 10 10 10 9 10 10 9 9 13 13 14 13 12 14 13 13 12 12 12 13 15 14 13 13 13 11 10 9 8 9 9 9 8 12 12 15 13 13 11 9 9 7 7
12 16 18 16 18 18 18 17 17 18 17 17 16 13 13 15 14 14 15 15 14 15 14 13 14 13 13 13 13 13 14 14 14 13 12 12 11 10 10 10 11 11 10 11 11 9 10 11 10 10 10 14 14 15 13 14 15 13 13 12 13 14 15 14 13 12 13 12 10 8 9 10 10 8 10 12 13 15 15 14 12 10 10 10 9
26 25 25 26 23 19 20 20 21 20 20 21 18 16 15 15 14 13 14 15 14 14 14 14 14 13 13 13 14 13 13 13 13 13 12 11 11 11 11 12 11 11 11 11 11 11 10 10 11 10 11 13 14 14 16 15 16 15 13 13 13 14 14 13 12 12 12 11 10 10 9 9 9 11 12 12 12 12 14 16 15 15 13 8 8
25 28 26 25 24 25 24 22 22 21 21 19 17 15 14 13 14 14 15 14 14 13 13 14 13 14 13 13 14 13 13 13 13 14 13 13 12 11 12 12 12 12 12 12 12 12 12 11 12 13 12 12 14 14 15 16 17 15 14 14 14 15 14 12 12 12 10 12 9 9 9 9 9 10 11 11 11 10 11 11 10 11 15 13 12
30 33 32 30 31 28 24 23 23 24 21 19 18 17 16 17 17 14 15 14 14 14 13 13 13 14 14 14 14 12 13 13 13 12 12 12 11 11 11 12 13 13 13 12 13 13 14 13 13 14 15 15 14 14 16 18 17 15 14 14 14 14 12 10 10 10 10 11 10 9 10 9 10 11 10 10 10 11 11 11 11 10 10 13 13
11 13 14 15 16 18 20 25 25 23 23 21 19 19 20 17 16 17 17 16 16 15 14 13 14 13 13 14 14 13 13 13 12 12 11 11 11 11 11 11 13 13 13 12 12 12 12 13 14 14 16 17 16 16 17 19 21 16 15 15 15 14 12 11 12 13 13 11 8 9 10 11 10 11 11 11 12 13 11 10 11 11 9 9 10
9 13 16 18 20 19 23 23 23 22 22 21 21 19 18 20 18 17 16 17 17 17 16 15 14 12 13 13 13 14 14 13 12 12 10 10 10 11 11 10 11 12 12 12 11 10 11 12 14 15 12 16 16 17 19 19 17 17 18 15 16 15 12 14 11 10 12 12 11 11 10 11 12 11 12 13 13 12 11 10 10 10 9 9 9
12 17 19 19 21 23 22 21 21 20 20 20 19 19 18 17 18 17 18 17 14 15 15 13 13 15 14 14 14 13 13 13 13 13 12 11 11 11 11 10 10 9 11 11 10 11 11 12 13 15 15 13 16 13 13 9 16 15 15 16 15 13 10 12 10 10 9 10 10 9 10 10 11 11 12 13 14 12 11 11 10 9 8 9 11
18 17 21 24 24 20 20 21 21 19 20 20 18 19 16 15 13 16 15 13 15 14 12 14 14 15 14 12 12 12 12 12 13 13 12 11 10 11 11 11 10 10 9 10 10 11 11 11 12 13 16 17 16 14 8 7 17 22 17 8 12 11 13 10 9 10 9 9 11 12 11 10 10 12 12 14 13 10 10 10 10 9 9 10 11
20 20 20 23 21 22 22 21 21 19 19 19 19 19 18 18 17 15 14 14 12 13 15 16 15 14 12 11 12 11 12 12 13 13 12 11 10 10 11 11 10 10 9 9 11 11 12 11 12 13 15 17 17 14 10 8 15 11 12 15 12 12 9 13 12 10 8 10 10 11 13 13 13 12 13 13 11 10 10 11 10 10 10 10 11
21 21 17 20 19 22 20 18 18 18 20 20 21 21 20 20 20 19 18 17 17 17 19 20 17 15 15 11 12 12 12 12 12 12 12 12 11 11 11 12 11 11 9 10 10 10 12 12 13 13 14 12 16 16 14 9 11 7 10 14 12 10 20 18 13 11 11 12 10 10 11 12 11 13 13 13 11 12 10 11 10 10 10 11 11
19 20 18 19 21 22 22 20 19 19 22 21 22 21 20 20 20 20 20 21 21 19 15 16 16 15 15 14 13 11 12 12 12 12 12 12 11 11 11 11 11 11 10 10 10 10 11 12 12 12 13 12 13 16 16 16 12 7 6 9 8 7 17 25 15 17 14 9 11 11 11 12 13 14 13 11 10 11 11 11 11 11 10 10 11
20 20 20 21 22 23 23 21 20 19 19 20 21 20 21 20 18 17 20 19 20 20 17 14 12 12 15 15 13 12 12 12 12 12 12 12 11 11 11 11 11 10 11 12 12 12 10 10 11 10 10 12 13 13 14 14 17 13 8 8 7 9 12 7 16 15 18 18 11 13 13 13 15 14 12 12 12 11 11 10 11 11 11 12 11
20 23 22 22 21 25 22 21 21 18 18 19 21 20 20 21 20 20 15 12 15 15 14 14 14 13 13 12 12 13 13 12 12 12 11 12 11 11 11 10 10 11 11 11 10 11 12 11 12 12 12 12 12 9 12 14 13 12 12 10 10 12 9 8 12 12 19 20 14 13 12 13 15 12 10 10 11 10 10 10 11 12 12 11 11
19 18 20 21 22 22 22 22 20 19 20 19 19 20 20 20 20 15 16 15 15 15 14 14 14 13 13 12 11 12 12 12 12 10 11 12 11 11 11 12 11 11 11 10 10 10 11 11 12 12 12 12 11 11 11 11 12 11 11 10 12 12 12 12 12 13 15 13 21 20 16 18 18 12 9 10 10 11 11 11 11 12 12 11 11
20 19 22 22 21 21 21 21 19 20 20 20 20 20 20 19 16 17 17 18 16 16 16 14 13 12 14 12 12 11 10 11 10 11 11 11 10 10 10 11 11 11 11 11 10 11 10 11 11 11 10 11 12 11 10 8 10 12 12 13 13 15 12 14 16 16 14 15 20 21 18 17 18 17 10 10 10 12 13 11 12 12 11 10 10
Wind_Speed
16 18 16 17 17 17 19 19 19 19 21 21 20 18 17 19 20 19 20 19 20 20 20 21 21 20 20 19 19 18 18 17 17 16 17 17 17 17 17 17 17 17 17 18 19 19 19 19 19 20 19 19 19 18 18 16 15 15 15 14 14 13 13 19 18 17 16 16 15 16 15 15 15 16 18 18 18 19 17 14 14 12 11 13 17
19 16 15 16 17 17 18 19 20 21 21 22 20 19 17 17 18 19 18 19 19 20 20 20 20 20 19 18 18 18 18 17 17 17 17 17 17 17 17 16 16 17 18 18 19 20 19 20 20 20 19 19 18 18 17 16 15 14 14 14 13 11 14 16 15 16 15 15 15 16 16 16 16 17 18 18 19 19 17 15 14 11 9 12 14
17 16 15 17 18 19 19 19 19 19 21 21 21 20 19 18 18 18 19 17 16 17 17 19 18 18 19 18 17 18 18 17 17 17 17 17 17 18 18 17 17 18 19 20 20 20 20 19 19 19 19 19 18 18 17 15 15 15 14 13 13 12 12 14 14 14 15 14 15 16 16 17 17 18 17 18 19 19 19 18 15 12 10 14 14
18 15 14 17 19 17 19 20 19 20 20 21 21 20 19 18 19 18 17 16 16 16 16 16 16 16 18 17 18 18 18 18 17 17 17 17 17 18 18 19 18 20 20 20 20 19 19 19 19 19 18 18 18 17 17 16 15 15 14 13 12 12 12 13 12 12 13 13 10 10 10 12 14 16 16 18 18 18 17 16 17 18 14 14 15
17 15 14 15 17 17 19 20 18 20 20 21 21 21 21 19 19 17 16 15 15 15 15 15 16 17 18 18 18 18 18 18 17 17 16 16 17 18 18 19 20 19 20 19 19 19 19 19 19 18 17 17 17 17 17 17 16 14 14 13 12 12 12 12 12 12 12 11 7 9 9 11 11 14 16 16 16 18 17 13 16 14 8 14 17
16 14 14 14 15 17 17 18 20 21 21 19 19 20 21 20 19 18 17 16 15 14 15 15 16 17 18 18 18 17 18 18 17 17 15 15 15 17 20 20 19 19 20 19 19 19 18 18 18 18 17 16 16 16 16 15 14 14 12 13 12 12 12 12 12 11 10 10 8 9 9 9 10 10 14 13 15 15 14 16 16 15 15 16 17
16 14 14 14 13 16 16 19 21 20 21 20 19 19 18 19 20 19 18 18 16 16 15 15 16 16 18 18 17 18 18 19 18 17 14 12 13 14 18 18 19 19 19 19 18 18 18 17 17 17 16 15 15 14 13 11 11 12 12 12 12 12 12 11 11 10 9 7 8 9 8 9 9 8 12 13 14 14 14 15 16 15 15 15 15
14 13 13 13 12 16 16 19 21 20 21 21 21 20 19 18 17 17 18 18 16 15 15 14 14 15 16 17 17 17 18 19 19 18 15 12 12 12 15 18 18 18 18 18 17 17 17 16 16 16 15 15 14 13 12 10 9 10 12 12 12 12 12 11 11 10 8 7 7 7 8 8 8 8 12 13 13 13 13 13 14 15 14 14 12
14 14 13 13 15 19 17 18 20 21 21 21 21 21 19 19 18 17 16 16 14 14 13 13 14 14 14 14 14 14 17 18 17 18 16 14 13 14 14 15 16 16 17 15 15 15 15 16 15 15 15 14 13 11 10 8 8 8 10 12 12 12 11 11 9 7 7 7 7 7 8 8 8 8 10 10 11 12 10 10 11 13 13 12 13
14 14 13 12 15 17 17 18 19 21 20 20 20 20 20 18 17 18 17 17 15 13 13 14 14 15 15 15 15 16 15 15 19 18 17 16 16 14 14 13 16 16 16 16 16 15 15 15 15 15 14 12 11 9 8 7 8 9 11 13 12 11 11 11 9 7 7 8 9 9 8 7 7 8 9 10 11 14 13 15 13 12 11 13 14
15 14 12 13 18 16 17 18 19 20 20 20 20 20 19 18 18 18 17 17 15 13 12 13 13 14 16 16 17 17 16 14 16 17 17 16 15 14 15 16 14 14 16 15 15 15 15 15 14 14 12 11 9 8 8 8 7 9 13 14 13 12 10 10 8 8 9 10 11 10 10 7 7 8 11 11 10 11 11 11 11 9 13 13 13
14 13 12 13 17 15 16 18 18 18 20 19 19 19 19 19 18 18 17 16 14 13 11 13 12 14 15 17 17 16 14 15 15 15 16 16 17 15 16 15 14 14 15 15 14 14 15 14 13 12 11 10 9 8 9 9 9 13 15 15 14 13 10 7 8 7 8 9 9 8 8 10 10 11 13 12 12 12 11 11 9 13 14 13 13
14 14 13 14 15 15 16 17 18 19 20 20 19 19 19 18 18 17 16 14 13 12 13 13 12 12 13 14 16 15 14 14 14 15 16 17 17 17 15 15 15 14 15 15 15 14 14 14 13 12 11 10 9 10 11 12 13 15 16 15 14 13 11 8 8 8 8 9 9 9 10 9 10 13 12 13 13 13 13 13 12 12 13 12 12
14 14 14 13 13 17 15 16 17 17 18 18 18 17 17 17 16 16 15 13 12 12 11 12 13 13 12 12 13 14 13 13 13 15 16 16 16 17 15 15 15 15 14 14 14 14 14 14 13 12 10 10 10 11 12 13 15 15 15 14 13 12 11 7 8 8 8 9 8 10 9 8 10 11 11 13 12 13 13 13 13 13 12 12 12
16 16 15 13 13 15 16 14 15 16 16 16 16 16 16 16 15 14 13 13 12 11 11 13 13 13 14 13 12 12 13 13 15 15 15 14 15 16 15 15 14 14 14 14 14 14 14 14 13 11 10 10 9 9 12 13 14 14 14 14 13 12 10 8 6 7 7 8 8 9 9 9 9 10 13 12 12 13 12 12 12 12 12 12 12
16 16 14 13 13 13 13 15 15 15 15 15 15 16 15 15 14 14 13 12 12 11 11 11 11 14 12 12 12 12 13 14 13 13 13 14 14 15 15 15 14 13 13 13 13 13 13 13 12 11 10 10 10 11 11 13 14 14 14 13 11 9 7 6 6 7 7 7 7 7 9 9 7 12 12 12 12 12 12 12 13 13 13 12 12
14 14 15 14 14 12 11 12 14 17 15 15 15 15 14 14 14 13 13 12 12 12 13 13 13 13 13 12 12 12 12 13 13 13 13 13 13 14 13 14 14 13 13 12 12 12 12 12 10 9 9 9 10 10 11 12 13 13 13 12 11 9 8 6 7 6 6 7 6 6 7 8 10 11 12 12 12 13 13 13 13 13 13 12 12
14 14 14 14 12 12 11 12 13 13 13 14 14 14 14 15 14 13 13 12 12 12 13 13 13 13 14 12 12 12 12 12 12 13 13 13 13 13 13 14 13 13 12 12 12 12 12 11 10 9 8 8 9 11 11 11 12 12 12 12 11 10 8 6 7 6 7 7 6 6 7 9 9 10 12 12 12 12 12 12 12 12 12 12 12
13 13 13 14 12 11 12 10 11 11 11 9 11 12 15 14 13 13 13 12 12 13 13 14 15 13 12 13 13 13 13 12 12 12 12 14 13 13 13 14 12 12 12 11 11 11 11 10 10 9 8 7 7 8 9 11 12 12 12 12 12 11 9 5 6 7 7 6 6 6 7 6 6 11 12 12 12 12 11 13 12 12 12 12 12
11 12 12 12 12 12 12 10 11 11 9 8 9 12 14 16 14 14 13 12 14 14 13 13 14 13 13 14 13 11 11 11 13 12 13 13 11 11 13 13 12 12 11 11 10 10 10 10 10 8 7 6 6 7 8 9 12 12 12 13 12 12 6 4 7 7 6 6 6 6 9 9 11 11 11 12 12 12 12 11 12 12 12 12 11
9 12 11 11 12 13 14 10 11 12 10 10 8 10 12 15 14 14 14 14 14 14 13 14 13 12 12 11 10 8 7 8 8 9 13 10 10 12 13 14 13 12 11 11 10 9 9 9 9 8 6 5 6 7 7 9 12 11 12 12 12 6 5 5 6 6 6 7 6 7 8 9 10 11 12 11 11 11 10 11 11 11 12 12 12
11 10 11 12 12 11 13 12 10 12 10 8 7 7 10 11 11 11 10 12 12 13 10 10 11 9 11 9 7 5 5 6 7 9 8 10 10 11 12 12 12 12 10 10 9 9 8 8 8 8 5 4 3 3 5 8 12 12 12 12 6 5 5 5 6 6 8 7 7 8 9 10 10 11 11 11 11 12 11 10 12 11 11 11 11
11 11 10 13 11 11 12 13 13 13 11 9 7 7 10 8 10 9 8 9 10 8 8 10 9 9 9 7 6 5 6 6 6 7 8 10 10 11 12 11 11 11 10 9 8 8 7 7 8 7 5 3 3 3 3 6 9 12 11 7 4 4 5 5 6 6 7 7 7 10 10 10 11 10 10 10 11 11 12 11 11 11 11 12 12
13 12 11 10 11 11 12 13 14 14 10 8 7 8 8 7 7 7 7 8 8 8 9 8 8 8 7 6 5 6 6 4 9 14 12 9 9 11 11 10 11 10 9 7 7 7 7 8 8 6 4 2 3 3 4 6 8 7 5 5 4 5 5 5 5 6 6 7 8 10 9 10 11 11 11 10 10 11 11 10 10 11 10 10 10
9 9 10 11 12 13 11 13 13 12 10 8 8 9 8 7 6 6 7 5 7 7 6 6 7 7 7 6 7 6 6 6 6 6 6 6 7 6 5 5 4 5 4 4 4 4 3 4 4 3 3 3 3 3 3 5 6 6 5 5 5 5 5 4 5 5 6 6 8 9 9 8 9 11 11 11 10 10 11 11 11 10 10 11 11
10 10 11 12 12 13 13 12 12 11 10 8 8 8 8 7 7 7 6 7 7 7 7 7 6 6 6 6 6 6 6 6 6 7 7 6 6 5 5 4 4 4 2 3 3 2 2 2 2 3 3 3 3 3 3 4 5 5 5 5 5 5 4 5 5 6 6 6 7 7 6 8 9 10 11 11 11 11 10 10 10 10 9 9 9
12 12 13 12 10 13 13 12 11 9 9 8 8 8 7 6 6 7 8 7 7 8 7 7 7 7 7 6 6 5 5 5 6 7 7 6 6 5 5 4 4 4 1 1 2 1 2 2 2 2 2 3 3 3 4 5 5 6 6 6 5 5 4 5 5 6 6 6 8 7 7 8 8 9 11 11 11 11 11 10 10 9 9 9 10
13 14 12 11 10 13 12 12 11 10 8 9 8 6 6 7 8 8 7 9 9 9 7 6 7 7 7 5 5 5 6 6 7 7 6 6 5 5 5 5 4 3 2 1 1 1 2 2 1 2 2 3 5 4 4 5 5 5 6 6 5 5 4 5 5 5 5 6 7 8 7 9 8 8 9 11 12 11 10 10 10 9 9 9 8
14 13 12 12 13 12 12 13 12 10 9 9 7 6 8 8 8 8 8 9 7 7 7 7 7 6 6 7 7 7 6 6 7 7 6 6 5 5 5 4 4 3 3 2 1 1 1 1 2 1 2 3 4 4 4 4 4 5 6 6 5 5 5 5 5 5 5 5 6 8 7 7 8 7 8 11 11 10 10 10 10 9 10 9 8
14 12 13 13 13 13 13 12 11 10 8 8 7 7 8 8 8 8 8 7 7 7 7 7 6 7 6 6 6 7 7 6 6 6 6 6 5 5 4 4 4 3 3 2 1 0 1 2 1 1 3 3 4 3 3 4 5 4 4 5 5 4 4 5 5 5 5 4 5 7 7 8 9 7 6 8 10 10 10 9 9 10 10 9 9
12 13 12 13 11 13 12 10 11 8 9 9 8 8 8 9 9 8 8 7 7 7 6 7 7 6 6 7 7 7 7 6 6 6 6 5 5 4 4 3 3 3 3 3 2 1 1 2 2 2 2 3 4 4 3 4 4 4 4 5 5 4 4 3 3 4 5 5 4 5 7 9 9 8 6 7 8 10 10 9 9 9 9 9 8
2 10 10 10 10 12 12 10 9 9 9 10 9 8 9 9 8 7 7 7 7 6 6 6 6 6 7 7 6 6 6 6 6 6 5 5 4 4 2 2 3 3 3 3 3 1 2 3 3 4 3 3 4 4 3 3 4 4 4 5 5 5 5 4 4 4 4 4 4 5 5 7 10 8 6 3 7 8 8 9 8 8 8 8 8
3 4 8 8 10 10 10 9 9 9 11 9 7 6 7 8 7 6 7 7 7 6 6 6 6 6 6 6 6 6 5 6 5 5 5 5 4 4 2 2 3 3 3 4 4 3 2 3 4 4 4 4 4 4 4 4 4 5 5 5 5 6 6 5 4 4 4 4 4 4 4 5 7 7 4 5 5 7 8 7 7 8 8 8 8
4 2 8 8 6 4 6 7 8 8 11 8 7 7 8 7 6 7 7 7 6 6 6 6 6 6 5 6 6 5 4 4 4 5 5 5 4 3 2 2 3 4 3 3 3 2 2 3 3 4 5 4 4 4 4 5 4 4 5 5 5 6 6 5 4 4 4 4 3 3 4 4 4 5 6 6 6 8 7 6 7 7 7 7 6
4 4 7 11 8 6 6 6 7 8 10 10 6 6 7 7 7 7 6 7 6 6 6 6 6 5 5 5 5 5 4 4 4 5 4 4 4 3 3 3 4 4 4 3 3 2 2 3 2 4 5 5 5 4 5 5 5 5 5 5 5 5 6 6 5 5 5 4 3 4 3 3 3 4 5 5 7 7 6 6 6 5 4 4 3
5 7 5 8 11 10 10 8 8 7 9 9 7 7 6 6 6 6 6 7 7 7 6 6 6 6 6 5 6 6 6 6 6 6 5 4 3 3 4 4 5 4 4 4 4 3 3 3 3 3 5 6 6 5 4 5 5 6 5 5 5 6 6 5 5 5 5 4 4 3 3 2 2 2 3 4 5 8 11 10 7 6 6 4 4
9 9 7 7 7 11 10 10 11 12 11 10 9 7 6 7 7 7 7 7 7 7 6 6 5 5 5 5 6 6 7 7 6 6 5 5 4 4 4 5 5 5 4 4 4 3 3 4 3 4 4 6 6 7 5 5 6 5 5 6 6 5 6 5 5 5 5 5 4 2 3 3 3 4 3 4 4 6 10 10 9 9 8 8 7
17 16 16 14 13 11 11 10 11 12 11 11 10 8 7 7 7 6 7 7 7 6 6 6 5 5 5 5 7 6 6 6 6 6 4 5 5 5 5 6 5 5 5 4 4 4 4 3 5 4 4 6 6 6 7 6 6 6 6 6 6 5 5 5 5 5 5 5 4 4 3 3 2 3 4 4 4 4 5 10 12 11 10 7 5
15 17 15 14 14 14 13 12 13 13 12 11 10 8 7 6 6 7 7 7 6 6 6 6 5 6 5 6 7 6 6 6 6 6 5 5 5 5 5 6 5 5 5 5 5 5 5 5 5 6 5 5 6 6 7 7 6 6 6 7 6 6 4 6 5 4 4 5 4 4 3 3 3 3 4 4 3 3 4 3 2 2 5 8 7
8 20 21 19 17 16 13 13 12 13 12 11 9 8 8 8 8 7 7 6 6 6 6 6 5 6 6 7 6 6 6 6 6 5 5 4 4 4 4 6 6 6 6 6 6 6 6 7 6 7 8 7 6 6 7 8 8 7 7 7 7 4 3 4 5 4 5 4 3 2 3 4 4 4 3 4 4 4 4 4 2 2 3 6 8
6 3 10 10 10 10 11 15 13 13 12 10 9 9 9 8 8 8 8 7 7 7 7 6 6 5 6 7 7 6 6 6 5 5 4 4 3 3 4 5 5 5 6 5 5 6 6 6 6 6 8 8 7 7 8 8 9 7 7 8 7 5 4 4 5 6 6 3 3 4 3 5 4 4 4 4 5 6 5 2 1 2 2 2 4
4 8 8 10 11 11 12 12 11 13 12 11 10 9 9 9 8 8 7 8 8 8 7 7 6 5 6 6 6 7 7 6 5 5 4 4 4 3 4 4 4 5 5 5 5 5 5 6 6 6 5 7 7 8 9 9 7 7 8 7 7 6 5 5 5 5 6 6 5 4 3 5 5 5 5 5 6 5 4 4 3 2 1 2 2
7 9 12 12 12 12 11 10 11 11 11 11 10 9 9 9 9 8 8 7 6 6 7 6 6 7 7 7 7 6 6 6 6 6 5 5 4 4 4 4 4 4 5 5 4 4 5 6 7 6 7 5 7 6 7 2 5 6 7 7 6 5 3 3 5 4 3 4 3 4 3 3 5 5 4 5 5 4 3 4 3 2 2 2 2
10 10 12 14 12 10 12 12 12 11 11 11 10 10 9 8 7 8 8 6 7 6 6 6 6 7 7 6 5 5 5 5 6 6 5 4 5 5 4 4 4 4 4 4 4 5 5 5 5 6 7 8 6 6 3 2 5 8 6 1 4 4 5 3 4 3 2 3 4 4 3 4 4 5 4 4 4 3 3 3 3 3 2 3 3
11 12 11 11 10 13 13 13 12 11 10 11 11 10 9 9 8 8 8 7 6 6 7 7 7 7 5 5 5 5 5 5 5 6 5 5 4 4 4 4 4 4 3 3 4 4 6 5 6 6 7 7 8 6 4 3 7 1 2 5 4 4 2 5 5 4 2 3 3 4 4 5 5 5 5 6 5 4 3 4 3 3 3 3 4
11 12 10 12 12 13 12 11 9 10 11 12 12 11 11 10 10 9 8 8 8 8 9 10 8 7 7 5 5 5 6 5 5 5 5 5 5 4 5 5 5 5 3 3 4 4 5 5 6 6 6 6 6 7 6 4 5 1 3 4 3 1 7 8 6 4 4 5 4 4 5 5 5 6 6 5 4 4 3 4 4 4 3 4 4
11 11 10 11 14 13 13 12 11 11 12 13 14 11 11 10 11 11 11 10 10 8 7 8 8 7 6 7 6 5 5 5 5 5 5 5 5 5 5 5 4 4 3 3 3 4 4 5 5 5 5 5 6 7 8 7 5 2 1 2 3 2 7 10 5 7 6 2 4 5 5 6 6 7 6 5 4 4 4 4 4 4 4 4 4
12 12 12 12 14 14 14 13 11 11 11 12 13 11 11 11 10 10 10 9 10 10 9 7 5 5 7 8 6 5 5 5 5 5 5 5 5 5 5 5 5 4 4 4 4 4 4 4 4 5 4 5 6 5 6 6 7 5 2 1 1 3 6 1 7 6 7 8 4 6 6 7 7 6 5 5 5 5 4 4 4 4 4 4 4
12 12 13 13 13 15 14 13 13 11 10 12 12 12 11 11 10 10 9 6 8 7 6 6 6 5 6 5 5 6 6 5 5 5 5 5 4 4 5 4 4 4 4 3 4 4 5 4 5 5 5 4 4 3 4 5 5 5 5 3 2 4 3 2 5 4 7 9 6 6 5 6 7 5 3 4 4 4 4 3 4 5 5 4 4
11 11 12 12 12 13 13 14 13 11 11 12 11 12 12 10 11 8 9 7 6 6 6 6 6 6 6 5 5 5 5 5 5 4 5 5 5 5 4 5 4 4 4 3 4 4 4 4 5 5 5 4 4 4 4 4 4 4 4 4 4 4 4 4 5 5 5 6 8 8 7 9 8 5 3 3 4 4 4 4 4 5 4 4 4
11 12 13 13 12 12 13 14 12 11 12 12 13 13 11 11 8 9 10 10 9 8 7 6 6 6 6 5 5 4 3 4 4 4 5 5 4 4 4 4 4 4 4 4 3 3 3 4 4 5 5 5 4 4 4 2 3 5 5 5 5 6 5 5 6 7 6 5 8 10 8 7 8 7 3 3 3 4 5 4 4 4 4 4 3
Wind_Direction
158 147 144 140 138 137 133 128 125 121 120 119 119 118 114 115 118 118 122 123 124 126 129 130 131 131 132 132 133 131 130 131 134 132 130 128 127 127 126 124 123 120 120 118 114 117 114 114 112 109 103 103 103 102 97 94 92 90 88 87 86 93 95 82 82 78 82 88 92 94 92 89 88 82 77 76 75 74 68 68 71 72 74 67 72
150 144 142 140 137 136 132 128 126 124 121 121 120 120 118 115 112 115 117 120 125 127 128 130 130 131 131 131 132 132 133 134 133 132 130 128 127 127 125 123 122 121 120 121 121 119 119 117 113 108 111 109 106 104 101 99 98 97 90 85 92 88 68 69 68 75 81 85 93 96 94 92 86 82 78 75 77 74 71 63 69 73 68 78 88
140 137 139 140 138 137 133 129 125 123 122 123 123 123 123 121 120 121 121 119 120 123 125 129 130 131 131 130 131 133 134 135 134 132 130 130 132 129 126 125 125 126 125 125 124 122 119 114 111 114 112 111 108 105 104 100 98 97 93 88 86 84 79 69 65 69 79 86 86 91 91 89 85 84 80 79 79 76 71 66 50 67 72 66 70
139 136 137 138 140 137 134 131 128 125 124 125 124 126 125 125 124 124 123 121 121 124 127 128 130 131 131 130 133 135 134 132 132 132 132 133 132 132 130 128 128 124 122 123 125 121 116 117 119 118 116 114 111 107 104 103 98 95 94 92 88 89 80 69 67 67 73 78 80 93 97 96 88 82 84 84 82 85 76 75 76 67 69 88 77
138 136 135 140 141 137 134 129 128 126 125 126 126 127 126 126 126 124 122 122 123 126 127 130 132 132 131 131 136 136 134 132 132 132 132 134 133 132 131 129 126 125 125 126 125 126 125 123 121 119 117 114 110 110 110 105 99 94 96 96 90 83 72 66 64 65 66 64 55 97 95 96 93 85 87 81 77 87 103 112 101 99 120 85 78
138 135 137 139 140 138 132 130 128 128 126 124 123 126 128 126 126 125 124 124 125 125 128 131 133 134 133 136 139 138 138 136 133 133 133 132 131 131 129 128 125 126 127 129 127 127 125 123 123 121 119 117 116 115 115 107 87 90 96 101 98 85 72 67 63 62 64 69 77 91 94 96 89 85 83 80 78 72 75 74 77 80 72 71 73
135 133 135 139 139 137 134 132 129 129 127 127 125 124 126 126 127 127 127 128 128 130 131 134 136 137 137 144 145 145 144 140 136 134 133 133 130 130 131 126 126 130 131 130 129 127 123 123 120 118 117 116 115 115 120 112 100 98 102 102 101 95 86 75 69 62 57 80 93 99 101 101 95 86 85 83 79 77 69 66 67 64 61 61 61
133 134 137 139 138 139 137 134 132 131 129 128 128 129 129 129 126 126 128 131 132 134 135 136 138 142 147 151 150 147 144 141 135 134 131 121 116 118 117 125 130 134 129 128 125 124 124 121 118 116 114 112 112 113 114 113 109 106 107 108 103 98 92 82 73 63 61 85 84 91 98 92 91 96 77 76 73 74 74 74 69 68 63 61 67
138 137 137 138 140 140 138 136 135 133 130 130 131 132 132 132 131 130 130 131 133 135 135 137 138 139 140 141 143 144 142 138 133 132 127 122 116 114 120 129 132 130 126 123 126 125 124 122 119 116 115 112 111 112 114 120 122 119 117 114 110 101 96 88 80 93 94 90 92 93 96 98 99 100 89 87 92 81 74 92 94 81 73 70 71
138 139 138 140 142 142 141 140 137 134 133 133 133 135 135 134 134 135 134 135 136 137 138 140 142 138 138 139 141 138 132 137 135 132 128 127 125 124 128 130 130 129 126 127 128 128 124 122 120 116 112 107 107 109 114 122 126 123 124 123 117 109 103 97 91 83 93 97 95 87 71 71 91 75 84 82 78 72 70 56 58 60 69 72 70
139 140 142 140 144 144 144 141 136 135 135 133 136 136 136 136 134 135 136 140 139 140 142 145 146 140 135 135 138 136 137 144 130 129 130 130 125 124 127 132 128 129 127 126 126 127 125 120 116 111 105 105 104 106 114 119 122 125 132 127 121 117 109 111 127 103 97 98 96 96 89 71 81 89 90 89 95 84 76 74 75 81 79 75 71
140 142 143 141 143 146 144 139 137 137 136 136 137 136 136 137 135 138 141 142 143 146 146 144 145 144 138 135 135 134 140 130 123 124 128 124 122 121 123 124 127 128 125 123 123 122 120 117 112 108 107 105 107 111 118 120 118 124 130 126 123 121 118 121 115 109 103 99 98 107 108 100 94 95 96 89 84 86 86 89 87 76 73 75 78
143 146 145 143 148 149 144 141 139 139 139 137 138 138 138 139 140 142 143 144 148 149 146 143 141 140 139 137 135 132 126 121 121 128 128 125 126 124 125 130 130 127 127 126 124 122 119 117 111 108 107 104 108 118 122 122 121 125 129 126 125 123 125 132 118 113 108 106 107 103 92 85 87 86 93 91 87 86 85 86 86 80 78 77 77
146 147 149 148 151 149 143 141 139 140 140 139 140 139 140 141 142 143 144 145 144 143 141 138 139 136 136 129 127 125 121 120 121 126 130 130 129 127 126 128 127 128 127 126 124 123 122 120 113 103 99 96 106 118 125 128 127 128 126 125 126 126 126 128 114 113 112 105 99 97 94 95 90 89 93 98 99 95 89 87 84 80 77 73 74
149 151 150 148 147 148 144 140 140 141 140 139 139 139 140 141 140 139 141 141 140 141 138 138 137 135 135 123 122 122 125 126 128 127 129 131 130 129 126 126 124 126 126 125 122 121 115 110 109 108 103 96 104 117 125 129 128 126 126 127 128 132 147 127 123 112 108 106 105 106 100 99 119 110 98 96 90 86 85 84 82 80 80 79 74
148 147 146 148 147 149 151 145 140 140 137 136 138 139 138 136 135 138 139 139 138 139 136 134 129 132 126 124 130 127 128 126 122 124 127 132 133 131 129 126 122 121 123 121 119 116 110 110 110 109 106 102 109 121 125 130 128 127 127 127 131 133 129 121 116 112 110 111 106 99 102 97 93 96 98 93 92 93 92 90 88 84 86 86 79
146 146 145 149 149 152 150 153 145 139 135 136 137 135 134 134 137 140 139 136 138 138 136 134 131 128 130 131 125 123 125 124 123 129 131 133 133 131 127 120 118 120 119 119 117 113 107 106 104 104 101 98 104 118 121 130 132 128 126 128 130 127 123 121 113 112 110 106 110 100 98 101 82 93 94 91 91 92 91 90 87 84 80 78 78
148 149 148 150 150 152 155 153 147 147 139 138 136 136 136 137 139 141 138 137 141 140 137 135 133 134 135 129 125 126 125 124 129 133 134 134 133 129 126 121 122 119 117 117 117 114 110 107 105 101 97 98 103 119 126 128 134 129 127 128 130 128 125 121 112 111 108 115 106 100 92 92 99 106 102 100 97 95 94 86 88 97 94 88 87
147 150 150 151 154 154 155 147 146 145 142 144 148 141 138 136 139 139 139 141 142 139 135 138 140 139 132 127 129 129 130 131 134 134 133 133 126 124 120 116 119 118 115 111 113 112 111 108 106 102 97 93 96 99 109 130 138 133 130 132 131 130 130 130 112 111 114 112 109 102 100 112 121 103 104 104 94 86 90 96 98 89 90 90 86
149 153 154 153 156 157 154 151 150 148 148 145 147 146 142 142 142 141 143 145 144 138 136 135 137 134 128 129 126 127 132 134 134 131 131 128 127 125 121 117 116 114 110 105 104 104 108 110 108 110 109 106 101 97 103 122 140 137 134 133 132 135 144 114 111 108 107 102 103 101 105 106 107 110 104 96 100 97 93 98 97 94 91 91 93
154 158 157 160 159 158 156 151 151 148 149 144 144 144 145 144 145 147 150 149 143 140 136 134 129 127 131 122 124 131 136 132 136 129 132 126 127 128 124 121 119 114 109 105 101 101 104 103 106 107 106 104 97 94 97 130 143 141 136 137 139 149 121 118 117 111 105 108 102 103 114 109 107 104 101 100 98 96 95 88 89 93 94 95 95
161 159 164 162 163 160 157 152 149 152 149 143 143 145 148 152 154 157 154 148 142 131 132 138 134 131 127 131 132 128 129 128 125 129 124 130 129 122 118 118 117 112 106 102 100 98 96 98 100 99 102 104 108 118 110 125 141 140 139 139 152 124 124 121 117 109 105 104 104 112 113 105 100 101 107 105 101 99 98 97 96 94 91 89 90
165 164 164 164 166 161 158 158 159 155 146 143 144 147 148 155 160 152 138 143 132 142 143 143 141 143 145 136 132 125 128 128 131 132 128 125 119 112 110 113 110 108 105 101 98 95 92 90 90 98 102 117 129 105 111 133 143 139 136 150 132 125 119 120 115 110 104 103 102 120 117 114 111 109 103 100 100 100 103 98 93 91 89 88 89
168 167 164 166 165 163 158 161 160 158 150 150 147 148 149 161 151 140 140 133 141 140 144 143 142 143 137 132 131 130 124 114 130 124 126 124 111 105 102 102 103 99 100 105 92 75 86 86 85 109 136 128 112 123 127 137 144 156 155 146 130 123 133 131 120 108 107 111 105 124 123 121 119 116 113 112 109 108 101 95 95 92 91 92 90
165 161 161 169 168 161 160 162 162 159 152 149 150 153 154 154 127 129 124 121 128 137 137 136 138 135 131 136 135 129 126 131 125 128 121 117 118 120 121 112 97 98 74 90 89 87 82 88 108 118 118 132 121 115 133 134 142 147 144 138 130 134 132 130 119 114 110 110 111 130 123 120 119 123 120 115 111 106 105 104 101 96 98 99 97
163 161 170 170 169 168 163 166 162 161 156 151 148 145 148 138 132 126 122 129 134 134 135 134 131 127 136 138 130 124 124 123 121 117 116 118 124 125 116 105 98 84 70 93 92 84 96 101 103 116 128 135 124 121 128 138 142 142 143 138 137 142 139 132 126 116 111 116 124 126 119 120 122 125 119 117 116 112 109 108 104 102 101 97 98
169 171 171 172 166 167 168 165 160 154 153 143 144 142 137 129 125 125 129 129 133 136 135 137 141 143 142 138 133 125 117 119 123 119 121 124 123 123 119 117 113 110 61 97 107 109 107 102 100 104 124 142 132 122 127 135 141 142 137 141 143 145 140 135 131 122 117 116 119 116 118 113 119 120 118 116 115 114 113 112 113 112 113 108 105
168 169 170 166 162 164 167 164 162 156 154 150 143 132 128 128 133 133 133 144 144 144 141 142 146 146 144 139 122 117 124 122 127 126 126 127 125 126 129 126 117 107 83 41 69 78 83 78 88 106 136 142 142 138 130 135 140 139 138 140 144 144 145 137 131 127 128 127 129 119 110 121 123 116 112 120 118 117 121 120 117 115 109 101 101
171 168 163 164 167 167 162 164 159 151 154 148 136 133 133 133 138 144 148 155 149 148 144 145 146 146 145 144 137 129 129 133 133 130 130 128 131 137 136 122 113 96 89 66 37 82 79 54 57 91 116 135 141 137 134 132 140 145 146 145 149 146 141 137 137 138 131 127 125 116 113 117 110 115 121 118 117 121 121 120 119 116 113 111 108
178 161 158 166 168 163 162 163 150 150 147 137 133 142 142 138 145 157 158 152 154 153 147 149 145 143 145 144 136 133 135 137 135 136 136 136 138 139 130 120 102 92 100 101 119 105 61 69 75 70 102 120 131 118 133 137 141 138 145 146 142 135 131 145 148 140 131 131 120 122 115 105 109 110 102 116 123 124 121 119 117 117 120 123 125
175 162 162 164 166 164 159 149 140 144 142 144 149 148 144 152 159 161 159 157 157 153 151 147 144 143 145 142 140 139 137 141 142 142 141 142 144 143 132 117 110 112 117 122 144 143 90 71 49 78 90 101 110 125 133 126 129 129 118 132 121 121 130 134 139 136 133 129 130 134 126 111 119 120 123 121 126 124 119 120 126 127 123 121 120
215 175 173 152 154 161 153 133 140 148 149 154 156 145 150 160 160 157 159 155 153 154 151 148 145 142 142 143 145 145 145 143 146 145 141 144 144 143 126 125 111 116 123 134 140 130 100 90 88 82 76 86 102 109 101 110 111 114 125 116 132 138 140 148 148 137 135 133 134 137 138 131 126 132 139 122 122 114 110 119 123 126 118 118 116
230 186 159 137 150 151 142 140 150 158 162 158 149 140 146 158 158 162 159 151 158 156 150 148 146 143 143 143 146 147 155 150 148 139 131 137 138 144 127 111 108 113 118 126 131 139 128 122 105 103 99 97 102 101 101 97 103 111 123 128 134 142 149 152 144 129 130 127 129 139 147 142 129 137 132 98 88 124 127 121 116 114 118 121 124
107 44 131 96 59 104 133 141 151 151 160 160 146 146 155 153 158 160 152 153 155 152 146 146 146 146 145 149 156 150 152 139 136 129 134 138 142 147 156 121 120 121 123 135 142 153 129 116 113 110 98 99 97 107 111 105 110 124 121 130 142 147 152 129 120 111 107 113 108 134 138 137 129 126 126 111 91 120 142 120 122 126 127 116 115
16 84 95 109 133 118 128 142 157 158 166 170 152 149 154 158 157 155 153 155 149 145 145 145 151 150 154 159 167 163 154 152 141 149 148 152 159 163 165 141 140 136 135 135 141 126 118 106 110 112 102 103 110 109 114 118 117 118 128 138 143 143 124 120 127 133 128 115 132 120 124 125 115 124 128 128 111 111 91 73 82 104 128 132 85
151 126 106 131 160 156 155 159 158 176 173 176 163 156 160 160 149 145 149 149 147 146 149 151 151 153 161 163 171 173 176 163 166 169 165 164 175 174 159 155 148 141 141 136 144 131 110 91 68 89 109 110 117 112 117 120 119 123 132 132 132 131 128 129 130 136 130 105 64 79 107 119 123 117 116 109 92 90 85 88 87 83 86 90 80
142 124 154 173 169 160 160 157 166 182 177 178 168 161 156 157 150 149 151 146 147 146 152 152 154 161 163 165 170 173 176 173 175 177 167 168 173 170 158 153 151 152 149 146 141 127 124 111 102 86 108 119 118 117 117 123 122 125 128 125 121 129 137 133 126 111 112 107 111 118 115 114 111 122 132 122 115 113 94 92 84 72 64 60 59
160 169 177 177 172 171 172 169 171 178 176 174 169 159 158 158 146 146 147 146 148 150 151 157 159 160 163 162 169 169 170 169 174 175 171 176 173 167 156 156 160 159 154 154 140 135 124 118 120 101 117 127 126 126 125 125 127 127 118 114 109 115 123 109 101 110 116 116 91 90 87 108 126 121 115 113 112 113 111 95 93 80 61 51 59
162 173 174 178 175 177 173 169 169 169 172 162 156 146 147 147 145 148 147 144 146 148 154 160 161 161 162 163 168 166 166 169 173 175 174 179 178 172 164 170 166 166 158 151 148 142 134 139 137 120 114 123 132 131 130 128 127 121 105 102 107 117 135 114 102 124 132 111 109 101 112 112 104 103 111 109 102 77 68 59 64 85 78 60 55
161 165 177 186 183 169 168 165 167 170 166 157 151 146 152 158 152 151 150 152 151 150 157 159 162 163 162 167 169 167 169 176 179 177 180 179 182 185 175 174 184 174 169 169 166 166 151 142 138 133 124 117 122 129 132 129 117 108 102 92 86 100 112 122 139 130 108 96 105 114 118 118 118 117 104 89 80 73 62 57 49 99 109 82 56
79 43 182 170 169 154 161 170 167 167 165 157 154 154 162 161 156 163 163 161 159 157 159 164 168 167 168 171 171 170 170 170 176 176 177 173 181 192 194 173 186 188 183 183 181 167 150 145 139 140 133 125 126 133 133 131 126 108 94 91 83 85 103 111 129 140 135 124 119 125 130 137 144 133 115 102 91 93 85 93 180 70 69 101 110
148 121 155 163 161 157 167 169 164 165 167 163 160 163 170 168 164 169 166 165 160 164 164 171 171 164 169 169 170 171 167 164 158 169 173 172 178 202 208 183 190 197 184 177 168 152 149 146 148 137 142 136 135 148 143 137 135 142 140 114 92 85 82 102 128 133 138 148 144 134 129 143 142 134 124 115 110 124 134 140 97 99 83 92 72
140 154 158 159 166 165 165 160 165 158 165 164 163 166 172 170 168 165 168 161 168 165 163 164 163 163 169 170 167 166 162 161 162 167 171 175 184 195 192 193 196 185 176 178 163 161 168 161 166 149 139 138 136 146 145 290 144 144 132 130 132 118 103 77 74 86 112 145 145 141 142 133 132 132 126 125 133 129 113 102 98 86 91 91 97
141 159 162 164 167 165 158 157 153 155 164 168 168 168 165 161 165 158 154 154 157 154 156 158 163 167 163 166 161 163 164 160 166 168 169 171 179 192 183 195 185 194 193 171 168 174 183 167 169 153 146 137 153 159 166 206 159 154 158 173 140 154 138 114 112 82 99 121 158 170 157 133 134 130 135 130 125 102 92 84 84 67 62 61 76
154 162 170 168 166 162 159 153 152 151 156 162 161 162 155 153 145 133 125 123 133 149 154 163 169 162 145 161 152 159 157 156 165 168 160 163 172 185 177 179 178 194 183 184 178 183 188 174 170 166 169 157 158 164 176 200 183 282 145 141 146 191 159 139 129 71 44 106 111 136 134 140 146 129 118 117 109 97 82 77 62 63 52 63 67
164 164 169 165 158 153 146 144 142 149 158 162 162 161 158 153 147 146 153 156 154 163 172 166 166 166 164 148 148 156 153 151 159 163 158 161 165 168 174 173 176 185 185 186 181 174 189 189 179 184 178 176 167 164 167 180 194 302 341 345 345 326 159 159 161 123 60 51 71 103 127 131 129 120 111 128 122 109 96 87 62 58 42 45 40
163 158 158 159 159 156 148 147 146 150 158 159 161 161 158 160 162 164 166 165 166 172 165 161 163 155 150 154 144 148 151 153 155 159 158 160 156 159 162 173 167 184 168 181 184 184 186 195 187 192 181 174 176 176 178 167 178 192 315 0 3 326 160 162 173 136 131 101 52 54 63 73 91 101 106 104 84 74 66 69 73 74 69 63 56
154 156 156 154 157 153 151 148 147 151 151 153 161 162 162 167 168 170 171 170 170 164 160 149 137 142 143 144 146 147 154 155 152 152 151 151 151 152 157 166 173 171 172 184 186 188 188 193 200 199 180 189 199 197 182 177 189 167 181 197 67 138 156 259 161 170 148 141 121 94 67 68 60 54 65 77 80 83 88 94 104 99 90 79 75
154 158 159 151 151 152 150 148 148 148 150 157 164 168 167 168 169 171 169 160 146 137 133 135 137 137 129 142 145 148 151 152 149 147 146 147 153 156 161 164 170 166 182 184 191 191 194 190 189 196 198 189 207 199 181 184 202 168 176 168 148 151 160 148 169 161 149 139 137 139 124 98 92 87 73 78 90 99 106 103 90 98 96 86 84
150 148 149 149 151 149 150 151 150 150 155 160 165 171 172 169 170 162 146 139 133 132 139 136 138 148 142 149 149 154 152 147 144 139 144 151 155 162 169 172 173 174 190 192 185 187 190 195 197 201 203 205 203 197 199 186 195 166 193 161 157 152 160 153 173 167 151 161 153 149 141 140 131 115 91 96 103 105 112 104 104 97 91 89 86
145 144 146 148 151 151 153 153 150 150 157 163 168 168 170 173 161 154 147 141 141 140 138 140 144 156 153 155 159 146 141 136 136 140 155 155 162 168 175 177 181 183 193 190 193 192 183 193 196 204 209 213 216 202 195 190 188 181 192 195 187 181 166 195 177 175 166 151 141 141 149 141 131 128 88 79 101 114 115 110 112 108 102 99 94